Location: Felsheim
(48.7267°N, 10.7386°E)
Time: 16:51:02
(UTC+00:00)

Cosmos 1812 Rocket - Pass Details

Date: 09 April 2020
Orbit: 606 x 631 km, 82.5° (Epoch: 02 June)

Event Time Altitude Azimuth Distance (km) Brightness Sun altitude
Exits shadow 19:25:19 21° 136° (SE) 1,371 4.7 -13.8°
Maximum altitude 19:27:22 32° 90° (E) 1,055 4.3 -14.1°
Drops below altitude 10° 19:31:13 10° 28° (NNE) 1,969 6.2 -14.7°
Sets 19:33:37 0° 18° (NNE) 2,878 7.2 -15.0°
